Regional Weather Roundup
Issued by NWS

Home | Current Version | Previous Version | Graphics & Text | Print | Product List | Glossary On
Versions: 1 2 3 4 5 6 7 8 9 10 11 12 13 14 15 16 17 18 19 20 21 22 23 24 25 26 27 28 29 30 31 32 33 34 35 36 37 38 39 40 41 42 43 44 45 46 47 48 49 50
000
ASUS43 KTOP 270659
RWRKS

WEATHER ROUNDUP FOR KANSAS
NATIONAL WEATHER SERVICE GOODLAND KS
200 AM CDT SAT MAY 27 2017

NOTE:  "FAIR" INDICATES FEW OR NO CLOUDS BELOW 12,000 FEET WITH NO
SIGNIFICANT WEATHER AND/OR OBSTRUCTIONS TO VISIBILITY.

KSZ001>006-013>018-027>032-041>047-270800-
NORTHWEST KANSAS

CITY           SKY/WX    TMP DP  RH WIND       PRES   REMARKS
GOODLAND       CLOUDY    53  50  89 E16G26    29.88F
HAYS           PTCLDY    64  59  83 NE10      29.82S
HILL CITY      TSTM      54  53  97 NW9       29.94R FOG
RUSSELL        CLOUDY    65  58  78 E10       29.80F
$$

KSZ061>065-074>080-084>089-270800-
SOUTHWEST KANSAS

CITY           SKY/WX    TMP DP  RH WIND       PRES   REMARKS
DODGE CITY     CLEAR     65  58  78 SE12      29.78F
ELKHART          N/A    N/A N/A N/A MISG        N/A
GARDEN CITY    PTCLDY    63  56  78 SE12      29.77F
GREAT BEND     CLEAR     67  60  78 E13       29.79F
LIBERAL        CLEAR     64  57  78 SE13      29.79F
$$

KSZ066>073-081>083-090>101-270800-
SOUTHEAST KANSAS

CITY           SKY/WX    TMP DP  RH WIND       PRES   REMARKS
CHANUTE        CLEAR     67  63  87 SE3       29.81F
COFFEYVILLE    CLEAR     69  69 100 N5        29.80F
HUTCHINSON     CLEAR     65  61  87 E8        29.80F
MEDICINE LODGE   N/A     69  61  75 SE7       29.76F
NEWTON         CLEAR     65  62  90 E6        29.83F
PARSONS        CLEAR     67  64  90 CALM      29.82S
WICHITA INTL   CLEAR     69  63  81 E6        29.80F
WICHITA JABRA  CLEAR     64  62  93 SE5       29.80F
WINFIELD       CLEAR     68  62  81 E6        29.80F
$$

KSZ007>012-019>026-033>040-048>060-102>105-270800-
NORTHEAST KANSAS

CITY           SKY/WX    TMP DP  RH WIND       PRES   REMARKS
CONCORDIA      PTCLDY    61  56  83 CALM      29.86S
EMPORIA        CLEAR     65  63  93 S3        29.83S
LAWRENCE       CLEAR     66  65  96 CALM      29.83R
MANHATTAN      MOCLDY    63  61  93 N3        29.84S
OLATHE IND     CLEAR     67  64  90 CALM      29.84F
OLATHE EXE     CLEAR     67  66  97 CALM      29.84S
SALINA         CLOUDY    67  61  81 CALM      29.82F
TOPEKA BILLARD CLEAR     66  65  96 CALM      29.82S
TOPEKA FORBES  CLEAR     64  63  96 CALM      29.83R
$$




USA.gov is the U.S. government's official web portal to all federal, state and local government web resources and services.